Weather History for Knoxville, TN

Change the Weather History Date:

Thursday, March 7, 2013

  Actual Average Record
Temperature  
Mean Temperature 36 °F 48 °F  
Max Temperature 38 °F 59 °F 80 °F (1983)
Min Temperature 33 °F 37 °F 5 °F (1899)
Degree Days  
Heating Degree Days 29 17  
Month to date heating degree days 203 127  
Since 1 July heating degree days 2895 3023  
Cooling Degree Days 0 0  
Month to date cooling degree days 0 0  
Year to date cooling degree days 2 0  
Moisture  
Dew Point 27 °F    
Average Humidity 71    
Maximum Humidity 82    
Minimum Humidity 59    
Precipitation  
Precipitation T in 0.14 in 2.07 in (1887)
Month to date precipitation 1.59 0.99  
Year to date precipitation 16.68 9.57  
Snow  
Snow T in 0.00 in - ()
Month to date snowfall 0.9 0.2  
Since 1 July snowfall 3.5 5.3  
Snow Depth 0.00 in    
Sea Level Pressure  
Sea Level Pressure 30.32 in    
Wind  
Wind Speed 8 mph (NNE)    
Max Wind Speed 14 mph    
Max Gust Speed 16 mph    
Visibility 10 miles    
Events Snow    
T = Trace of Precipitation, MM = Missing Value Source: NWS Daily Summary

Daily Weather History Graph

Daily Weather History Graph

Search for Another Location

Airport:

Trip Planner

Search our weather history database for the weather conditions in past years. The results will help you decide how hot, cold, wet, or windy it might be!

Date:

Astronomy

Mar. 07, 2013 Rise Set
Actual Time 6:57 AM EST 6:36 PM EST
Civil Twilight 6:32 AM EST 7:02 PM EST
Nautical Twilight 6:02 AM EST 7:31 PM EST
Astronomical Twilight 5:32 AM EST 8:01 PM EST
Moon 3:49 AM EST (3/7) 2:30 PM EST (3/7)
Length of Visible Light 12h 30m
Length of Day
11h 39m
Waning Crescent, 20% of the Moon is Illuminated
Mar 7
Waning Crescent
Mar 11
New
Mar 19
First Quarter
Mar 27
Full
Apr 3
Last Quarter

Hourly Weather History & Observations

Time (EST) Temp. Windchill Dew Point Humidity Pressure Visibility Wind Dir Wind Speed Gust Speed Precip Events Conditions
12:53 AM 33.1 °F 27.7 °F 28.9 °F 85% 30.24 in 7.0 mi East 5.8 mph - 0.00 in Snow Light Snow
1:53 AM 33.1 °F - 28.9 °F 85% 30.26 in 9.0 mi Calm Calm - 0.00 in   Overcast
2:53 AM 33.1 °F 30.0 °F 28.9 °F 85% 30.26 in 10.0 mi NNE 3.5 mph - N/A   Overcast
3:53 AM 33.1 °F 28.7 °F 28.9 °F 85% 30.28 in 10.0 mi NE 4.6 mph - N/A   Overcast
4:53 AM 33.1 °F 30.0 °F 28.0 °F 82% 30.30 in 10.0 mi North 3.5 mph - 0.00 in Snow Light Snow
5:53 AM 33.1 °F 26.9 °F 27.0 °F 78% 30.30 in 10.0 mi NE 6.9 mph - 0.00 in   Overcast
6:53 AM 33.1 °F 27.7 °F 27.0 °F 78% 30.32 in 10.0 mi NE 5.8 mph - N/A   Overcast
7:53 AM 33.1 °F 27.7 °F 27.0 °F 78% 30.33 in 10.0 mi NE 5.8 mph - N/A   Overcast
8:53 AM 34.0 °F 26.6 °F 27.0 °F 75% 30.34 in 10.0 mi NNE 9.2 mph - N/A   Overcast
9:53 AM 36.0 °F 28.5 °F 27.0 °F 70% 30.34 in 10.0 mi NE 10.4 mph - N/A   Mostly Cloudy
10:53 AM 36.0 °F 29.6 °F 25.0 °F 64% 30.35 in 10.0 mi North 8.1 mph - N/A   Overcast
11:53 AM 36.0 °F 30.3 °F 26.1 °F 67% 30.36 in 10.0 mi NNW 6.9 mph - N/A   Overcast
12:53 PM 37.0 °F 31.0 °F 27.0 °F 67% 30.33 in 10.0 mi North 8.1 mph - N/A   Overcast
1:53 PM 37.0 °F 31.6 °F 26.1 °F 65% 30.32 in 10.0 mi North 6.9 mph - N/A   Overcast
2:53 PM 37.9 °F 30.5 °F 27.0 °F 65% 30.32 in 10.0 mi North 11.5 mph - N/A   Overcast
3:53 PM 37.9 °F 31.5 °F 27.0 °F 65% 30.32 in 10.0 mi North 9.2 mph - N/A   Overcast
4:53 PM 37.0 °F 31.0 °F 26.1 °F 65% 30.33 in 10.0 mi NNE 8.1 mph - N/A   Overcast
5:53 PM 37.0 °F 30.4 °F 25.0 °F 62% 30.34 in 10.0 mi North 9.2 mph - N/A   Overcast
6:53 PM 36.0 °F 28.5 °F 25.0 °F 64% 30.34 in 10.0 mi NNE 10.4 mph - N/A   Overcast
7:53 PM 36.0 °F 29.0 °F 26.1 °F 67% 30.36 in 10.0 mi North 9.2 mph - N/A   Overcast
8:53 PM 35.1 °F 27.4 °F 25.0 °F 67% 30.37 in 10.0 mi NNE 10.4 mph - N/A   Overcast
9:53 PM 34.0 °F 26.0 °F 25.0 °F 70% 30.35 in 10.0 mi NNE 10.4 mph - N/A   Overcast
10:53 PM 34.0 °F 26.6 °F 25.0 °F 70% 30.35 in 10.0 mi NNE 9.2 mph - N/A   Overcast
11:53 PM 34.0 °F 27.2 °F 25.0 °F 70% 30.35 in 10.0 mi NNE 8.1 mph - N/A   Overcast